Location: Bodest
(46.3000°N, 22.5667°E)
Time: 00:03:09
(UTC+00:00)

CZ-4 R/B - Pass Details

Date: 16 October 2021
Orbit: 531 x 595 km, 97.8° (Epoch: 26 November)

Event Time Altitude Azimuth Distance (km) Brightness Sun altitude
Rises 18:02:23 0° 196° (SSW) 2,701 4.9 -25.0°
Reaches altitude 10° 18:04:46 10° 210° (SSW) 1,824 4.1 -25.4°
Maximum altitude 18:08:02 25° 266° (W) 1,159 3.6 -25.9°
Drops below altitude 10° 18:11:23 10° 322° (NW) 1,869 4.7 -26.5°
Sets 18:13:52 0° 336° (NNW) 2,784 5.5 -26.9°
